Location: Northam
(31.6525°S, 116.6655°E)
Time: 05:46:02
(UTC+08:00)

N. Korean satellite - Visible Passes

Search period start: 28 July 2021 00:00
Search period end: 07 August 2021 00:00
Orbit: 451 x 497 km, 97.2° (Epoch: 26 July)

Date Brightness Start Highest point End Pass type
(mag) Time Alt. Az. Time Alt. Az. Time Alt. Az.
30 Jul 9.7 18:28:19 10° SW 18:30:00 13° WSW 18:31:40 10° W visible
31 Jul 8.7 17:59:34 10° SSW 18:02:43 29° WSW 18:05:53 10° NW visible
03 Aug 9.3 18:10:39 10° SSW 18:13:27 21° WSW 18:16:15 10° WNW visible
06 Aug 9.6 18:21:54 10° SSW 18:24:07 16° WSW 18:26:21 10° WNW visible
